Time,TemperatureF,DewpointF,PressureIn,WindDirection,WindDirectionDegrees,WindSpeedMPH,WindSpeedGustMPH,Humidity,HourlyPrecipIn,Conditions,Clouds,dailyrainin,SoftwareType,DateUTC
2013-04-24 00:01:00,70.6,59.9,30.06,NNE,24,0.0,0.0,69,0.00,,,0.00,Wunderground v.1.15,2013-04-24 04:01:00,
2013-04-24 00:02:00,70.6,59.9,30.06,NE,39,0.0,0.0,69,0.00,,,0.00,Wunderground v.1.15,2013-04-24 04:02:00,
2013-04-24 00:03:00,70.6,59.9,30.06,NE,52,0.0,0.0,69,0.00,,,0.00,Wunderground v.1.15,2013-04-24 04:03:00,
2013-04-24 00:07:00,70.6,59.9,30.06,ENE,70,0.0,0.0,69,0.00,,,0.00,Wunderground v.1.15,2013-04-24 04:07:00,
2013-04-24 00:13:00,70.8,60.9,30.06,ENE,70,0.0,0.0,71,0.00,,,0.00,Wunderground v.1.15,2013-04-24 04:13:00,
2013-04-24 00:15:00,70.8,60.9,30.06,NNE,31,0.0,0.0,71,0.00,,,0.00,Wunderground v.1.15,2013-04-24 04:15:00,
2013-04-24 00:21:00,70.8,60.5,30.06,ESE,103,0.0,0.0,70,0.00,,,0.00,Wunderground v.1.15,2013-04-24 04:21:00,
2013-04-24 00:27:00,70.9,59.8,30.06,ENE,72,0.0,2.0,68,0.00,,,0.00,Wunderground v.1.15,2013-04-24 04:27:00,
2013-04-24 00:33:00,70.9,60.2,30.06,ENE,65,0.0,0.0,69,0.00,,,0.00,Wunderground v.1.15,2013-04-24 04:33:00,
2013-04-24 00:39:00,70.8,59.7,30.06,ENE,58,0.0,0.0,68,0.00,,,0.00,Wunderground v.1.15,2013-04-24 04:39:00,
2013-04-24 00:45:00,70.8,59.7,30.06,NE,53,0.0,0.0,68,0.00,,,0.00,Wunderground v.1.15,2013-04-24 04:45:00,
2013-04-24 00:51:00,70.6,59.5,30.06,ENE,65,0.0,0.0,68,0.00,,,0.00,Wunderground v.1.15,2013-04-24 04:51:00,
2013-04-24 00:57:00,70.4,59.3,30.06,NE,47,0.0,4.0,68,0.00,,,0.00,Wunderground v.1.15,2013-04-24 04:57:00,
2013-04-24 01:02:00,70.4,59.7,30.06,ENE,72,0.0,1.0,69,0.00,,,0.00,Wunderground v.1.15,2013-04-24 05:02:00,
2013-04-24 01:08:00,70.1,59.5,30.06,East,94,0.0,1.0,69,0.00,,,0.00,Wunderground v.1.15,2013-04-24 05:08:00,
2013-04-24 01:14:00,69.9,59.3,30.05,East,80,0.0,0.0,69,0.00,,,0.00,Wunderground v.1.15,2013-04-24 05:14:00,
2013-04-24 01:20:00,69.8,59.2,30.05,ENE,68,0.0,0.0,69,0.00,,,0.00,Wunderground v.1.15,2013-04-24 05:20:00,
2013-04-24 01:26:00,69.4,59.2,30.05,ENE,68,0.0,0.0,70,0.00,,,0.00,Wunderground v.1.15,2013-04-24 05:26:00,
2013-04-24 01:32:00,69.3,59.5,30.05,ENE,67,0.0,0.0,71,0.00,,,0.00,Wunderground v.1.15,2013-04-24 05:32:00,
2013-04-24 01:38:00,68.9,59.5,30.05,ENE,67,0.0,0.0,72,0.00,,,0.00,Wunderground v.1.15,2013-04-24 05:38:00,
2013-04-24 01:44:00,68.8,59.8,30.04,NE,56,0.0,0.0,73,0.00,,,0.00,Wunderground v.1.15,2013-04-24 05:44:00,
2013-04-24 01:50:00,68.6,60.0,30.04,NE,55,0.0,0.0,74,0.00,,,0.00,Wunderground v.1.15,2013-04-24 05:50:00,
2013-04-24 01:56:00,68.4,60.2,30.04,NE,55,0.0,0.0,75,0.00,,,0.00,Wunderground v.1.15,2013-04-24 05:56:00,
2013-04-24 02:01:00,68.4,60.2,30.04,ENE,65,0.0,0.0,75,0.00,,,0.00,Wunderground v.1.15,2013-04-24 06:01:00,
2013-04-24 02:06:00,68.6,60.0,30.04,ENE,66,0.0,0.0,74,0.00,,,0.00,Wunderground v.1.15,2013-04-24 06:06:00,
2013-04-24 02:11:00,68.6,60.0,30.04,ESE,104,0.0,5.0,74,0.00,,,0.00,Wunderground v.1.15,2013-04-24 06:11:00,
2013-04-24 02:16:00,68.4,59.4,30.04,ESE,104,0.0,5.0,73,0.00,,,0.00,Wunderground v.1.15,2013-04-24 06:16:00,
2013-04-24 02:21:00,68.4,59.4,30.04,ESE,104,0.0,0.0,73,0.00,,,0.00,Wunderground v.1.15,2013-04-24 06:21:00,
2013-04-24 02:26:00,68.3,59.3,30.04,ESE,110,0.0,0.0,73,0.00,,,0.00,Wunderground v.1.15,2013-04-24 06:26:00,
2013-04-24 02:31:00,68.3,59.3,30.03,ESE,110,0.0,2.0,73,0.00,,,0.00,Wunderground v.1.15,2013-04-24 06:31:00,
2013-04-24 02:36:00,68.3,59.3,30.03,East,100,0.0,2.0,73,0.00,,,0.00,Wunderground v.1.15,2013-04-24 06:36:00,
2013-04-24 02:41:00,68.1,59.1,30.03,East,100,0.0,0.0,73,0.00,,,0.00,Wunderground v.1.15,2013-04-24 06:41:00,
2013-04-24 02:46:00,67.9,59.3,30.02,East,100,0.0,0.0,74,0.00,,,0.00,Wunderground v.1.15,2013-04-24 06:46:00,
2013-04-24 02:51:00,67.9,59.3,30.02,East,98,0.0,0.0,74,0.00,,,0.00,Wunderground v.1.15,2013-04-24 06:51:00,
2013-04-24 02:56:00,67.8,59.2,30.02,East,98,0.0,0.0,74,0.00,,,0.00,Wunderground v.1.15,2013-04-24 06:56:00,
2013-04-24 03:01:00,67.8,59.6,30.02,East,98,0.0,0.0,75,0.00,,,0.00,Wunderground v.1.15,2013-04-24 07:01:00,
2013-04-24 03:06:00,67.8,59.6,30.02,East,98,0.0,0.0,75,0.00,,,0.00,Wunderground v.1.15,2013-04-24 07:06:00,
2013-04-24 03:12:00,67.6,59.8,30.02,East,98,0.0,0.0,76,0.00,,,0.00,Wunderground v.1.15,2013-04-24 07:12:00,
2013-04-24 03:17:00,67.6,59.8,30.01,East,98,0.0,1.0,76,0.00,,,0.00,Wunderground v.1.15,2013-04-24 07:17:00,
2013-04-24 03:22:00,67.4,59.6,30.01,East,98,0.0,0.0,76,0.00,,,0.00,Wunderground v.1.15,2013-04-24 07:22:00,
2013-04-24 03:28:00,67.4,59.6,30.01,East,98,0.0,0.0,76,0.00,,,0.00,Wunderground v.1.15,2013-04-24 07:28:00,
2013-04-24 03:33:00,67.3,59.8,30.01,East,98,0.0,1.0,77,0.00,,,0.00,Wunderground v.1.15,2013-04-24 07:33:00,
2013-04-24 03:38:00,67.1,59.6,30.01,East,98,0.0,1.0,77,0.00,,,0.00,Wunderground v.1.15,2013-04-24 07:38:00,
2013-04-24 03:43:00,67.3,59.8,30.01,East,98,0.0,0.0,77,0.00,,,0.00,Wunderground v.1.15,2013-04-24 07:43:00,
2013-04-24 03:49:00,67.4,60.3,30.01,NE,50,0.0,4.0,78,0.00,,,0.00,Wunderground v.1.15,2013-04-24 07:49:00,
2013-04-24 03:54:00,68.1,60.6,30.01,East,98,1.0,5.0,77,0.00,,,0.00,Wunderground v.1.15,2013-04-24 07:54:00,
2013-04-24 03:59:00,68.6,60.4,30.01,ESE,108,0.0,1.0,75,0.00,,,0.00,Wunderground v.1.15,2013-04-24 07:59:00,
2013-04-24 04:04:00,68.8,60.6,30.01,ESE,107,0.0,1.0,75,0.00,,,0.00,Wunderground v.1.15,2013-04-24 08:04:00,
2013-04-24 04:09:00,68.8,60.6,30.01,ESE,107,0.0,0.0,75,0.00,,,0.00,Wunderground v.1.15,2013-04-24 08:09:00,
2013-04-24 04:14:00,68.6,60.0,30.01,ESE,107,0.0,0.0,74,0.00,,,0.00,Wunderground v.1.15,2013-04-24 08:14:00,
2013-04-24 04:19:00,68.4,59.8,30.01,ESE,105,0.0,0.0,74,0.00,,,0.00,Wunderground v.1.15,2013-04-24 08:19:00,
2013-04-24 04:24:00,68.3,59.7,30.01,ESE,105,0.0,0.0,74,0.00,,,0.00,Wunderground v.1.15,2013-04-24 08:24:00,
2013-04-24 04:29:00,67.9,59.7,30.02,ESE,105,0.0,0.0,75,0.00,,,0.00,Wunderground v.1.15,2013-04-24 08:29:00,
2013-04-24 04:34:00,67.8,59.6,30.02,ESE,105,0.0,0.0,75,0.00,,,0.00,Wunderground v.1.15,2013-04-24 08:34:00,
2013-04-24 04:39:00,67.6,59.8,30.02,ESE,105,0.0,0.0,76,0.00,,,0.00,Wunderground v.1.15,2013-04-24 08:39:00,
2013-04-24 04:44:00,67.4,59.6,30.02,ESE,105,0.0,0.0,76,0.00,,,0.00,Wunderground v.1.15,2013-04-24 08:44:00,
2013-04-24 04:50:00,67.3,59.8,30.02,ESE,105,0.0,0.0,77,0.00,,,0.00,Wunderground v.1.15,2013-04-24 08:50:00,
2013-04-24 04:55:00,67.1,60.0,30.02,ESE,105,0.0,0.0,78,0.00,,,0.00,Wunderground v.1.15,2013-04-24 08:55:00,
2013-04-24 05:00:00,66.9,59.8,30.03,ESE,105,0.0,0.0,78,0.00,,,0.00,Wunderground v.1.15,2013-04-24 09:00:00,
2013-04-24 05:06:00,66.8,60.1,30.03,ESE,105,0.0,0.0,79,0.00,,,0.00,Wunderground v.1.15,2013-04-24 09:06:00,
2013-04-24 05:11:00,66.8,60.1,30.03,ESE,105,0.0,0.0,79,0.00,,,0.00,Wunderground v.1.15,2013-04-24 09:11:00,
2013-04-24 05:16:00,66.6,59.9,30.03,ESE,105,0.0,0.0,79,0.00,,,0.00,Wunderground v.1.15,2013-04-24 09:16:00,
2013-04-24 05:21:00,66.6,60.2,30.03,ESE,105,0.0,0.0,80,0.00,,,0.00,Wunderground v.1.15,2013-04-24 09:21:00,
2013-04-24 05:26:00,66.6,60.2,30.03,ESE,105,0.0,0.0,80,0.00,,,0.00,Wunderground v.1.15,2013-04-24 09:26:00,
2013-04-24 05:31:00,66.6,60.2,30.03,ESE,105,0.0,0.0,80,0.00,,,0.00,Wunderground v.1.15,2013-04-24 09:31:00,
2013-04-24 05:36:00,66.6,60.2,30.03,ESE,105,0.0,0.0,80,0.00,,,0.00,Wunderground v.1.15,2013-04-24 09:36:00,
2013-04-24 05:41:00,66.8,60.4,30.03,ESE,105,0.0,0.0,80,0.00,,,0.00,Wunderground v.1.15,2013-04-24 09:41:00,
2013-04-24 05:46:00,66.8,60.1,30.03,ESE,104,0.0,0.0,79,0.00,,,0.00,Wunderground v.1.15,2013-04-24 09:46:00,
2013-04-24 05:52:00,66.9,60.2,30.03,ENE,68,0.0,0.0,79,0.00,,,0.00,Wunderground v.1.15,2013-04-24 09:52:00,
2013-04-24 05:57:00,66.9,59.8,30.03,ENE,68,0.0,0.0,78,0.00,,,0.00,Wunderground v.1.15,2013-04-24 09:57:00,
2013-04-24 06:02:00,66.9,59.5,30.04,ENE,68,0.0,0.0,77,0.00,,,0.00,Wunderground v.1.15,2013-04-24 10:02:00,
2013-04-24 06:07:00,66.9,59.5,30.04,ENE,68,0.0,0.0,77,0.00,,,0.00,Wunderground v.1.15,2013-04-24 10:07:00,
2013-04-24 06:12:00,66.9,59.5,30.04,ENE,68,0.0,0.0,77,0.00,,,0.00,Wunderground v.1.15,2013-04-24 10:12:00,
2013-04-24 06:17:00,66.8,59.4,30.04,ENE,68,0.0,2.0,77,0.00,,,0.00,Wunderground v.1.15,2013-04-24 10:17:00,
2013-04-24 06:22:00,66.8,59.4,30.04,ENE,68,0.0,0.0,77,0.00,,,0.00,Wunderground v.1.15,2013-04-24 10:22:00,
2013-04-24 06:27:00,66.6,59.5,30.04,ENE,68,0.0,0.0,78,0.00,,,0.00,Wunderground v.1.15,2013-04-24 10:27:00,
2013-04-24 06:32:00,66.6,59.5,30.04,ENE,68,0.0,0.0,78,0.00,,,0.00,Wunderground v.1.15,2013-04-24 10:32:00,
2013-04-24 06:37:00,66.6,59.2,30.04,ENE,68,0.0,1.0,77,0.00,,,0.00,Wunderground v.1.15,2013-04-24 10:37:00,
2013-04-24 06:42:00,66.6,59.2,30.04,ENE,68,0.0,0.0,77,0.00,,,0.00,Wunderground v.1.15,2013-04-24 10:42:00,
2013-04-24 06:47:00,66.6,59.2,30.05,ENE,70,0.0,1.0,77,0.00,,,0.00,Wunderground v.1.15,2013-04-24 10:47:00,
2013-04-24 06:52:00,66.6,59.2,30.05,ENE,72,0.0,0.0,77,0.00,,,0.00,Wunderground v.1.15,2013-04-24 10:52:00,
2013-04-24 06:58:00,66.6,59.2,30.05,ENE,72,0.0,0.0,77,0.00,,,0.00,Wunderground v.1.15,2013-04-24 10:58:00,
2013-04-24 07:03:00,66.4,59.0,30.05,ENE,72,0.0,0.0,77,0.00,,,0.00,Wunderground v.1.15,2013-04-24 11:03:00,
2013-04-24 09:40:00,75.8,62.3,30.09,ESE,103,1.0,1.0,63,0.00,,,0.00,Wunderground v.1.15,2013-04-24 13:40:00,
2013-04-24 09:45:00,76.0,62.5,30.09,East,97,1.0,7.0,63,0.00,,,0.00,Wunderground v.1.15,2013-04-24 13:45:00,
2013-04-24 09:50:00,76.0,61.6,30.09,ESE,121,0.0,1.0,61,0.00,,,0.00,Wunderground v.1.15,2013-04-24 13:50:00,
2013-04-24 09:55:00,76.0,61.6,30.09,East,80,1.0,3.0,61,0.00,,,0.00,Wunderground v.1.15,2013-04-24 13:55:00,
2013-04-24 10:01:00,76.1,62.1,30.09,SE,132,0.0,2.0,62,0.00,,,0.00,Wunderground v.1.15,2013-04-24 14:01:00,
2013-04-24 10:06:00,76.3,61.9,30.09,East,85,0.0,2.0,61,0.00,,,0.00,Wunderground v.1.15,2013-04-24 14:06:00,
2013-04-24 10:11:00,76.5,61.6,30.09,ENE,63,0.0,0.0,60,0.00,,,0.00,Wunderground v.1.15,2013-04-24 14:11:00,
2013-04-24 10:16:00,76.7,61.8,30.10,East,91,1.0,2.0,60,0.00,,,0.00,Wunderground v.1.15,2013-04-24 14:16:00,
2013-04-24 10:21:00,76.7,61.8,30.10,East,97,0.0,2.0,60,0.00,,,0.00,Wunderground v.1.15,2013-04-24 14:21:00,
2013-04-24 10:26:00,77.0,62.5,30.10,ESE,102,0.0,6.0,61,0.00,,,0.00,Wunderground v.1.15,2013-04-24 14:26:00,
2013-04-24 10:31:00,77.4,62.4,30.10,SE,136,0.0,4.0,60,0.00,,,0.00,Wunderground v.1.15,2013-04-24 14:31:00,
2013-04-24 10:37:00,77.6,62.1,30.10,NE,56,1.0,4.0,59,0.00,,,0.00,Wunderground v.1.15,2013-04-24 14:37:00,
2013-04-24 10:42:00,78.1,62.6,30.10,SE,124,1.0,4.0,59,0.00,,,0.00,Wunderground v.1.15,2013-04-24 14:42:00,
2013-04-24 10:47:00,78.3,62.3,30.10,SE,129,0.0,6.0,58,0.00,,,0.00,Wunderground v.1.15,2013-04-24 14:47:00,
2013-04-24 10:52:00,78.6,62.6,30.10,ESE,114,2.0,2.0,58,0.00,,,0.00,Wunderground v.1.15,2013-04-24 14:52:00,
2013-04-24 10:57:00,79.0,63.0,30.10,SSE,167,0.0,5.0,58,0.00,,,0.00,Wunderground v.1.15,2013-04-24 14:57:00,
2013-04-24 11:03:00,79.4,62.8,30.10,SE,129,1.0,3.0,57,0.00,,,0.00,Wunderground v.1.15,2013-04-24 15:03:00,
2013-04-24 11:09:00,79.4,63.8,30.10,East,101,0.0,6.0,59,0.00,,,0.00,Wunderground v.1.15,2013-04-24 15:09:00,
2013-04-24 11:14:00,79.8,62.2,30.10,ENE,58,0.0,6.0,55,0.00,,,0.00,Wunderground v.1.15,2013-04-24 15:14:00,
2013-04-24 11:19:00,79.9,62.3,30.10,ESE,104,0.0,6.0,55,0.00,,,0.00,Wunderground v.1.15,2013-04-24 15:19:00,
2013-04-24 11:24:00,79.9,63.3,30.10,East,83,1.0,4.0,57,0.00,,,0.00,Wunderground v.1.15,2013-04-24 15:24:00,
2013-04-24 11:29:00,80.1,62.5,30.10,East,92,0.0,7.0,55,0.00,,,0.00,Wunderground v.1.15,2013-04-24 15:29:00,
2013-04-24 11:34:00,80.3,62.7,30.10,ESE,108,0.0,4.0,55,0.00,,,0.00,Wunderground v.1.15,2013-04-24 15:34:00,
2013-04-24 11:39:00,80.5,63.4,30.10,ENE,77,0.0,4.0,56,0.00,,,0.00,Wunderground v.1.15,2013-04-24 15:39:00,
2013-04-24 11:44:00,81.1,62.9,30.10,SE,134,0.0,9.0,54,0.00,,,0.00,Wunderground v.1.15,2013-04-24 15:44:00,
2013-04-24 11:49:00,81.4,63.2,30.10,SSE,159,0.0,9.0,54,0.00,,,0.00,Wunderground v.1.15,2013-04-24 15:49:00,
2013-04-24 11:54:00,81.1,61.8,30.10,ENE,78,0.0,5.0,52,0.00,,,0.00,Wunderground v.1.15,2013-04-24 15:54:00,
2013-04-24 12:00:00,80.9,62.7,30.09,East,79,0.0,0.0,54,0.00,,,0.00,Wunderground v.1.15,2013-04-24 16:00:00,
2013-04-24 12:05:00,80.9,62.2,30.09,ESE,105,0.0,4.0,53,0.00,,,0.00,Wunderground v.1.15,2013-04-24 16:05:00,
2013-04-24 12:10:00,81.1,62.9,30.09,East,100,0.0,0.0,54,0.00,,,0.00,Wunderground v.1.15,2013-04-24 16:10:00,
2013-04-24 12:15:00,81.6,63.3,30.09,ESE,122,2.0,2.0,54,0.00,,,0.00,Wunderground v.1.15,2013-04-24 16:15:00,
2013-04-24 12:21:00,81.6,62.3,30.09,ENE,69,0.0,5.0,52,0.00,,,0.00,Wunderground v.1.15,2013-04-24 16:21:00,
2013-04-24 12:26:00,81.2,63.0,30.09,East,93,0.0,5.0,54,0.00,,,0.00,Wunderground v.1.15,2013-04-24 16:26:00,
2013-04-24 12:31:00,81.4,62.1,30.09,ENE,58,0.0,1.0,52,0.00,,,0.00,Wunderground v.1.15,2013-04-24 16:31:00,
2013-04-24 12:36:00,81.8,62.5,30.09,South,182,5.0,5.0,52,0.00,,,0.00,Wunderground v.1.15,2013-04-24 16:36:00,
2013-04-24 12:41:00,82.4,63.5,30.09,ESE,113,3.0,3.0,53,0.00,,,0.00,Wunderground v.1.15,2013-04-24 16:41:00,
2013-04-24 12:46:00,82.8,62.3,30.08,SSE,154,0.0,4.0,50,0.00,,,0.00,Wunderground v.1.15,2013-04-24 16:46:00,
2013-04-24 12:51:00,82.6,61.5,30.08,East,89,0.0,0.0,49,0.00,,,0.00,Wunderground v.1.15,2013-04-24 16:51:00,
2013-04-24 12:56:00,82.8,62.8,30.08,ENE,59,3.0,6.0,51,0.00,,,0.00,Wunderground v.1.15,2013-04-24 16:56:00,
2013-04-24 13:02:00,82.6,62.6,30.07,East,90,0.0,4.0,51,0.00,,,0.00,Wunderground v.1.15,2013-04-24 17:02:00,
2013-04-24 13:07:00,82.6,62.1,30.07,East,89,0.0,5.0,50,0.00,,,0.00,Wunderground v.1.15,2013-04-24 17:07:00,
2013-04-24 13:12:00,82.4,63.0,30.07,East,99,0.0,2.0,52,0.00,,,0.00,Wunderground v.1.15,2013-04-24 17:12:00,
2013-04-24 13:17:00,82.6,63.7,30.07,East,79,0.0,6.0,53,0.00,,,0.00,Wunderground v.1.15,2013-04-24 17:17:00,
2013-04-24 13:22:00,82.8,63.4,30.07,East,97,0.0,2.0,52,0.00,,,0.00,Wunderground v.1.15,2013-04-24 17:22:00,
2013-04-24 13:27:00,83.0,63.0,30.07,ESE,115,0.0,4.0,51,0.00,,,0.00,Wunderground v.1.15,2013-04-24 17:27:00,
2013-04-24 13:32:00,83.4,63.9,30.07,ENE,75,0.0,0.0,52,0.00,,,0.00,Wunderground v.1.15,2013-04-24 17:32:00,
2013-04-24 13:37:00,83.4,63.4,30.07,NNE,32,0.0,3.0,51,0.00,,,0.00,Wunderground v.1.15,2013-04-24 17:37:00,
2013-04-24 13:43:00,83.6,63.0,30.07,East,101,0.0,1.0,50,0.00,,,0.00,Wunderground v.1.15,2013-04-24 17:43:00,
2013-04-24 13:48:00,84.0,63.9,30.07,ESE,115,0.0,3.0,51,0.00,,,0.00,Wunderground v.1.15,2013-04-24 17:48:00,
2013-04-24 13:53:00,83.8,64.3,30.07,East,88,0.0,4.0,52,0.00,,,0.00,Wunderground v.1.15,2013-04-24 17:53:00,
2013-04-24 13:59:00,84.0,63.4,30.07,NNE,14,0.0,4.0,50,0.00,,,0.00,Wunderground v.1.15,2013-04-24 17:59:00,
2013-04-24 14:04:00,84.0,63.9,30.07,SE,137,0.0,7.0,51,0.00,,,0.00,Wunderground v.1.15,2013-04-24 18:04:00,
2013-04-24 14:09:00,84.0,62.8,30.07,SE,129,0.0,7.0,49,0.00,,,0.00,Wunderground v.1.15,2013-04-24 18:09:00,
2013-04-24 14:14:00,83.6,62.4,30.07,ENE,72,0.0,9.0,49,0.00,,,0.00,Wunderground v.1.15,2013-04-24 18:14:00,
2013-04-24 14:19:00,83.4,62.8,30.07,SE,138,0.0,9.0,50,0.00,,,0.00,Wunderground v.1.15,2013-04-24 18:19:00,
2013-04-24 14:24:00,83.2,63.7,30.07,ESE,123,0.0,1.0,52,0.00,,,0.00,Wunderground v.1.15,2013-04-24 18:24:00,
2013-04-24 14:29:00,83.8,63.2,30.07,ESE,120,0.0,1.0,50,0.00,,,0.00,Wunderground v.1.15,2013-04-24 18:29:00,
2013-04-24 14:34:00,83.8,62.6,30.07,SE,131,0.0,4.0,49,0.00,,,0.00,Wunderground v.1.15,2013-04-24 18:34:00,
2013-04-24 14:40:00,83.8,63.7,30.07,ENE,70,0.0,0.0,51,0.00,,,0.00,Wunderground v.1.15,2013-04-24 18:40:00,
2013-04-24 14:45:00,84.0,63.9,30.07,East,100,0.0,0.0,51,0.00,,,0.00,Wunderground v.1.15,2013-04-24 18:45:00,
2013-04-24 14:50:00,84.0,62.2,30.07,ENE,57,0.0,1.0,48,0.00,,,0.00,Wunderground v.1.15,2013-04-24 18:50:00,
2013-04-24 14:55:00,83.4,62.2,30.07,ENE,70,0.0,1.0,49,0.00,,,0.00,Wunderground v.1.15,2013-04-24 18:55:00,
2013-04-24 15:00:00,83.0,63.0,30.07,ESE,116,0.0,0.0,51,0.00,,,0.00,Wunderground v.1.15,2013-04-24 19:00:00,
2013-04-24 15:05:00,83.0,64.1,30.07,SE,124,0.0,4.0,53,0.00,,,0.00,Wunderground v.1.15,2013-04-24 19:05:00,
2013-04-24 15:10:00,83.6,63.0,30.07,ENE,63,0.0,0.0,50,0.00,,,0.00,Wunderground v.1.15,2013-04-24 19:10:00,
2013-04-24 15:15:00,84.1,63.5,30.07,SSE,150,0.0,6.0,50,0.00,,,0.00,Wunderground v.1.15,2013-04-24 19:15:00,
2013-04-24 15:21:00,84.5,64.4,30.07,ENE,69,0.0,0.0,51,0.00,,,0.00,Wunderground v.1.15,2013-04-24 19:21:00,
2013-04-24 15:26:00,84.5,63.8,30.07,ENE,60,0.0,1.0,50,0.00,,,0.00,Wunderground v.1.15,2013-04-24 19:26:00,
2013-04-24 15:31:00,84.1,64.0,30.06,ESE,112,0.0,3.0,51,0.00,,,0.00,Wunderground v.1.15,2013-04-24 19:31:00,
2013-04-24 15:37:00,84.0,63.4,30.06,East,81,0.0,5.0,50,0.00,,,0.00,Wunderground v.1.15,2013-04-24 19:37:00,
2013-04-24 15:42:00,83.6,63.6,30.06,East,86,0.0,0.0,51,0.00,,,0.00,Wunderground v.1.15,2013-04-24 19:42:00,
2013-04-24 15:47:00,83.6,63.0,30.06,East,98,0.0,6.0,50,0.00,,,0.00,Wunderground v.1.15,2013-04-24 19:47:00,
2013-04-24 15:53:00,83.8,63.7,30.06,NNW,348,0.0,0.0,51,0.00,,,0.00,Wunderground v.1.15,2013-04-24 19:53:00,
2013-04-24 15:58:00,83.2,63.2,30.06,NE,45,0.0,1.0,51,0.00,,,0.00,Wunderground v.1.15,2013-04-24 19:58:00,
2013-04-24 16:03:00,82.6,64.3,30.06,ENE,68,0.0,3.0,54,0.00,,,0.00,Wunderground v.1.15,2013-04-24 20:03:00,
2013-04-24 16:08:00,82.8,62.8,30.06,NNE,32,0.0,6.0,51,0.00,,,0.00,Wunderground v.1.15,2013-04-24 20:08:00,
2013-04-24 16:13:00,82.4,64.1,30.06,SSE,150,0.0,1.0,54,0.00,,,0.00,Wunderground v.1.15,2013-04-24 20:13:00,
2013-04-24 16:18:00,82.8,63.9,30.06,SE,135,0.0,1.0,53,0.00,,,0.00,Wunderground v.1.15,2013-04-24 20:18:00,
2013-04-24 16:23:00,83.2,63.7,30.06,East,83,0.0,2.0,52,0.00,,,0.00,Wunderground v.1.15,2013-04-24 20:23:00,
2013-04-24 16:28:00,82.8,63.4,30.06,ENE,73,0.0,2.0,52,0.00,,,0.00,Wunderground v.1.15,2013-04-24 20:28:00,
2013-04-24 16:34:00,83.0,63.6,30.06,NNE,33,0.0,1.0,52,0.00,,,0.00,Wunderground v.1.15,2013-04-24 20:34:00,
2013-04-24 16:39:00,82.8,63.9,30.06,East,90,4.0,4.0,53,0.00,,,0.00,Wunderground v.1.15,2013-04-24 20:39:00,
2013-04-24 16:44:00,82.8,63.9,30.05,East,86,0.0,1.0,53,0.00,,,0.00,Wunderground v.1.15,2013-04-24 20:44:00,
2013-04-24 16:49:00,83.0,63.6,30.05,ENE,69,0.0,4.0,52,0.00,,,0.00,Wunderground v.1.15,2013-04-24 20:49:00,
2013-04-24 16:55:00,82.6,63.2,30.05,NE,53,0.0,1.0,52,0.00,,,0.00,Wunderground v.1.15,2013-04-24 20:55:00,
2013-04-24 17:00:00,82.4,64.1,30.05,East,82,0.0,0.0,54,0.00,,,0.00,Wunderground v.1.15,2013-04-24 21:00:00,
2013-04-24 17:05:00,82.6,63.7,30.05,NE,49,0.0,5.0,53,0.00,,,0.00,Wunderground v.1.15,2013-04-24 21:05:00,
2013-04-24 17:10:00,82.6,64.3,30.05,ENE,74,0.0,0.0,54,0.00,,,0.00,Wunderground v.1.15,2013-04-24 21:10:00,
2013-04-24 17:16:00,82.2,63.9,30.05,NE,56,3.0,4.0,54,0.00,,,0.00,Wunderground v.1.15,2013-04-24 21:16:00,
2013-04-24 17:21:00,82.0,63.7,30.05,East,82,0.0,6.0,54,0.00,,,0.00,Wunderground v.1.15,2013-04-24 21:21:00,
2013-04-24 17:26:00,81.8,63.5,30.05,East,94,0.0,6.0,54,0.00,,,0.00,Wunderground v.1.15,2013-04-24 21:26:00,
2013-04-24 17:32:00,81.6,63.3,30.05,ESE,108,0.0,0.0,54,0.00,,,0.00,Wunderground v.1.15,2013-04-24 21:32:00,
2013-04-24 17:37:00,81.1,62.9,30.05,ESE,115,0.0,0.0,54,0.00,,,0.00,Wunderground v.1.15,2013-04-24 21:37:00,
2013-04-24 17:42:00,80.7,62.0,30.05,SSE,155,0.0,3.0,53,0.00,,,0.00,Wunderground v.1.15,2013-04-24 21:42:00,
2013-04-24 17:47:00,80.5,62.8,30.06,ESE,116,0.0,3.0,55,0.00,,,0.00,Wunderground v.1.15,2013-04-24 21:47:00,
2013-04-24 17:52:00,79.9,62.3,30.06,East,96,0.0,1.0,55,0.00,,,0.00,Wunderground v.1.15,2013-04-24 21:52:00,
2013-04-24 17:57:00,79.6,62.5,30.06,ENE,75,3.0,3.0,56,0.00,,,0.00,Wunderground v.1.15,2013-04-24 21:57:00,
2013-04-24 18:02:00,79.2,63.1,30.06,ESE,110,0.0,0.0,58,0.00,,,0.00,Wunderground v.1.15,2013-04-24 22:02:00,
2013-04-24 18:07:00,79.2,62.7,30.06,ESE,111,0.0,0.0,57,0.00,,,0.00,Wunderground v.1.15,2013-04-24 22:07:00,
2013-04-24 18:12:00,79.0,63.0,30.06,ESE,111,0.0,6.0,58,0.00,,,0.00,Wunderground v.1.15,2013-04-24 22:12:00,
2013-04-24 18:18:00,78.6,62.6,30.06,East,86,0.0,7.0,58,0.00,,,0.00,Wunderground v.1.15,2013-04-24 22:18:00,
2013-04-24 18:23:00,78.6,63.6,30.06,East,86,0.0,0.0,60,0.00,,,0.00,Wunderground v.1.15,2013-04-24 22:23:00,
2013-04-24 18:28:00,78.3,62.8,30.06,East,100,0.0,4.0,59,0.00,,,0.00,Wunderground v.1.15,2013-04-24 22:28:00,
2013-04-24 18:33:00,77.9,62.9,30.06,ENE,69,0.0,1.0,60,0.00,,,0.00,Wunderground v.1.15,2013-04-24 22:33:00,
2013-04-24 18:38:00,77.6,63.1,30.06,East,89,0.0,4.0,61,0.00,,,0.00,Wunderground v.1.15,2013-04-24 22:38:00,
2013-04-24 18:43:00,77.4,62.9,30.06,ESE,113,0.0,0.0,61,0.00,,,0.00,Wunderground v.1.15,2013-04-24 22:43:00,
2013-04-24 18:48:00,77.0,63.0,30.06,East,84,0.0,0.0,62,0.00,,,0.00,Wunderground v.1.15,2013-04-24 22:48:00,
2013-04-24 18:53:00,76.8,62.8,30.06,ESE,110,0.0,1.0,62,0.00,,,0.00,Wunderground v.1.15,2013-04-24 22:53:00,
2013-04-24 18:59:00,76.7,63.2,30.06,NE,56,0.0,1.0,63,0.00,,,0.00,Wunderground v.1.15,2013-04-24 22:59:00,
2013-04-24 19:04:00,76.5,63.4,30.06,East,98,0.0,0.0,64,0.00,,,0.00,Wunderground v.1.15,2013-04-24 23:04:00,
2013-04-24 19:09:00,76.1,62.6,30.06,East,85,0.0,0.0,63,0.00,,,0.00,Wunderground v.1.15,2013-04-24 23:09:00,
2013-04-24 19:14:00,75.8,62.8,30.06,ENE,77,0.0,1.0,64,0.00,,,0.00,Wunderground v.1.15,2013-04-24 23:14:00,
2013-04-24 19:20:00,75.4,62.4,30.06,East,79,0.0,0.0,64,0.00,,,0.00,Wunderground v.1.15,2013-04-24 23:20:00,
2013-04-24 19:25:00,75.3,62.3,30.06,East,94,0.0,0.0,64,0.00,,,0.00,Wunderground v.1.15,2013-04-24 23:25:00,
2013-04-24 19:30:00,74.9,62.3,30.07,ENE,78,0.0,0.0,65,0.00,,,0.00,Wunderground v.1.15,2013-04-24 23:30:00,
2013-04-24 19:35:00,74.7,62.1,30.07,East,95,0.0,0.0,65,0.00,,,0.00,Wunderground v.1.15,2013-04-24 23:35:00,
2013-04-24 19:40:00,74.4,61.9,30.07,East,100,0.0,0.0,65,0.00,,,0.00,Wunderground v.1.15,2013-04-24 23:40:00,
2013-04-24 19:45:00,74.2,62.1,30.07,East,100,0.0,0.0,66,0.00,,,0.00,Wunderground v.1.15,2013-04-24 23:45:00,
2013-04-24 19:50:00,73.9,61.8,30.07,ESE,108,0.0,0.0,66,0.00,,,0.00,Wunderground v.1.15,2013-04-24 23:50:00,
2013-04-24 19:55:00,73.7,62.1,30.07,East,99,0.0,4.0,67,0.00,,,0.00,Wunderground v.1.15,2013-04-24 23:55:00,
2013-04-24 20:01:00,73.5,62.3,30.07,ESE,104,0.0,0.0,68,0.00,,,0.00,Wunderground v.1.15,2013-04-25 00:01:00,
2013-04-24 20:06:00,73.3,62.1,30.07,East,87,0.0,1.0,68,0.00,,,0.00,Wunderground v.1.15,2013-04-25 00:06:00,
2013-04-24 20:11:00,73.2,62.4,30.07,ENE,78,0.0,0.0,69,0.00,,,0.00,Wunderground v.1.15,2013-04-25 00:11:00,
2013-04-24 20:16:00,73.0,62.2,30.08,ENE,78,0.0,0.0,69,0.00,,,0.00,Wunderground v.1.15,2013-04-25 00:16:00,
2013-04-24 20:21:00,72.8,62.4,30.08,East,89,0.0,0.0,70,0.00,,,0.00,Wunderground v.1.15,2013-04-25 00:21:00,
2013-04-24 20:26:00,72.8,62.4,30.08,East,92,0.0,0.0,70,0.00,,,0.00,Wunderground v.1.15,2013-04-25 00:26:00,
2013-04-24 20:31:00,72.7,62.3,30.08,ENE,70,0.0,0.0,70,0.00,,,0.00,Wunderground v.1.15,2013-04-25 00:31:00,
2013-04-24 20:36:00,72.5,62.2,30.08,ENE,72,0.0,0.0,70,0.00,,,0.00,Wunderground v.1.15,2013-04-25 00:36:00,
2013-04-24 20:41:00,72.5,62.2,30.08,ENE,72,0.0,0.0,70,0.00,,,0.00,Wunderground v.1.15,2013-04-25 00:41:00,
2013-04-24 20:46:00,72.1,61.8,30.09,ENE,72,0.0,1.0,70,0.00,,,0.00,Wunderground v.1.15,2013-04-25 00:46:00,
2013-04-24 20:51:00,72.0,62.1,30.09,ENE,72,0.0,0.0,71,0.00,,,0.00,Wunderground v.1.15,2013-04-25 00:51:00,
2013-04-24 20:56:00,72.0,62.1,30.09,ENE,72,0.0,0.0,71,0.00,,,0.00,Wunderground v.1.15,2013-04-25 00:56:00,
2013-04-24 21:01:00,71.8,62.3,30.09,ENE,74,0.0,1.0,72,0.00,,,0.00,Wunderground v.1.15,2013-04-25 01:01:00,
2013-04-24 21:06:00,71.6,62.1,30.09,East,94,0.0,1.0,72,0.00,,,0.00,Wunderground v.1.15,2013-04-25 01:06:00,
2013-04-24 21:11:00,71.6,62.5,30.09,East,98,0.0,0.0,73,0.00,,,0.00,Wunderground v.1.15,2013-04-25 01:11:00,
2013-04-24 21:16:00,71.6,62.5,30.09,NE,49,0.0,1.0,73,0.00,,,0.00,Wunderground v.1.15,2013-04-25 01:16:00,
2013-04-24 21:22:00,71.6,62.5,30.09,ENE,77,0.0,0.0,73,0.00,,,0.00,Wunderground v.1.15,2013-04-25 01:22:00,
2013-04-24 21:27:00,71.6,62.5,30.09,SSE,153,0.0,0.0,73,0.00,,,0.00,Wunderground v.1.15,2013-04-25 01:27:00,
2013-04-24 21:32:00,71.6,62.5,30.10,East,100,0.0,0.0,73,0.00,,,0.00,Wunderground v.1.15,2013-04-25 01:32:00,
2013-04-24 21:37:00,71.6,62.1,30.10,East,91,0.0,0.0,72,0.00,,,0.00,Wunderground v.1.15,2013-04-25 01:37:00,
2013-04-24 21:42:00,71.6,62.1,30.10,East,98,0.0,0.0,72,0.00,,,0.00,Wunderground v.1.15,2013-04-25 01:42:00,
2013-04-24 21:47:00,71.6,62.1,30.10,East,87,0.0,0.0,72,0.00,,,0.00,Wunderground v.1.15,2013-04-25 01:47:00,
2013-04-24 21:52:00,71.6,61.7,30.10,ESE,103,0.0,0.0,71,0.00,,,0.00,Wunderground v.1.15,2013-04-25 01:52:00,
2013-04-24 21:57:00,71.6,61.7,30.10,ESE,108,0.0,1.0,71,0.00,,,0.00,Wunderground v.1.15,2013-04-25 01:57:00,
2013-04-24 22:02:00,71.6,62.1,30.10,ESE,108,0.0,0.0,72,0.00,,,0.00,Wunderground v.1.15,2013-04-25 02:02:00,
2013-04-24 22:08:00,71.6,62.1,30.10,ESE,108,0.0,0.0,72,0.00,,,0.00,Wunderground v.1.15,2013-04-25 02:08:00,
2013-04-24 22:13:00,71.5,62.4,30.10,ESE,107,0.0,0.0,73,0.00,,,0.00,Wunderground v.1.15,2013-04-25 02:13:00,
2013-04-24 22:18:00,71.5,62.4,30.11,ESE,107,0.0,0.0,73,0.00,,,0.00,Wunderground v.1.15,2013-04-25 02:18:00,
2013-04-24 22:23:00,71.5,62.4,30.11,East,101,0.0,1.0,73,0.00,,,0.00,Wunderground v.1.15,2013-04-25 02:23:00,
2013-04-24 22:28:00,71.3,62.6,30.11,East,101,0.0,1.0,74,0.00,,,0.00,Wunderground v.1.15,2013-04-25 02:28:00,
2013-04-24 22:33:00,71.3,62.2,30.11,ESE,110,0.0,0.0,73,0.00,,,0.00,Wunderground v.1.15,2013-04-25 02:33:00,
2013-04-24 22:38:00,71.3,61.8,30.11,ESE,105,0.0,1.0,72,0.00,,,0.00,Wunderground v.1.15,2013-04-25 02:38:00,
2013-04-24 22:43:00,71.3,61.8,30.11,ESE,105,0.0,0.0,72,0.00,,,0.00,Wunderground v.1.15,2013-04-25 02:43:00,
2013-04-24 22:48:00,71.1,61.6,30.11,ESE,104,0.0,1.0,72,0.00,,,0.00,Wunderground v.1.15,2013-04-25 02:48:00,
2013-04-24 22:53:00,71.1,62.0,30.11,ESE,104,0.0,0.0,73,0.00,,,0.00,Wunderground v.1.15,2013-04-25 02:53:00,
2013-04-24 22:58:00,70.9,61.8,30.11,ESE,104,0.0,0.0,73,0.00,,,0.00,Wunderground v.1.15,2013-04-25 02:58:00,
2013-04-24 23:03:00,70.9,62.2,30.10,ESE,104,0.0,0.0,74,0.00,,,0.00,Wunderground v.1.15,2013-04-25 03:03:00,
2013-04-24 23:09:00,70.8,62.1,30.10,ESE,121,0.0,0.0,74,0.00,,,0.00,Wunderground v.1.15,2013-04-25 03:09:00,
2013-04-24 23:14:00,70.8,62.1,30.10,ESE,122,0.0,0.0,74,0.00,,,0.00,Wunderground v.1.15,2013-04-25 03:14:00,
2013-04-24 23:19:00,70.6,61.9,30.10,ESE,122,0.0,0.0,74,0.00,,,0.00,Wunderground v.1.15,2013-04-25 03:19:00,
2013-04-24 23:24:00,70.6,61.5,30.10,ESE,122,0.0,0.0,73,0.00,,,0.00,Wunderground v.1.15,2013-04-25 03:24:00,
2013-04-24 23:29:00,70.6,61.9,30.10,ESE,122,0.0,0.0,74,0.00,,,0.00,Wunderground v.1.15,2013-04-25 03:29:00,
2013-04-24 23:34:00,70.6,61.9,30.10,ESE,122,0.0,0.0,74,0.00,,,0.00,Wunderground v.1.15,2013-04-25 03:34:00,
2013-04-24 23:39:00,70.4,62.1,30.10,ESE,122,0.0,0.0,75,0.00,,,0.00,Wunderground v.1.15,2013-04-25 03:39:00,
2013-04-24 23:44:00,70.3,62.0,30.10,ESE,122,0.0,0.0,75,0.00,,,0.00,Wunderground v.1.15,2013-04-25 03:44:00,
2013-04-24 23:49:00,70.3,62.4,30.10,SE,129,0.0,0.0,76,0.00,,,0.00,Wunderground v.1.15,2013-04-25 03:49:00,
2013-04-24 23:54:00,70.1,62.2,30.10,SE,129,0.0,0.0,76,0.00,,,0.00,Wunderground v.1.15,2013-04-25 03:54:00,
2013-04-24 23:59:00,69.9,62.0,30.10,SE,127,0.0,0.0,76,0.00,,,0.00,Wunderground v.1.15,2013-04-25 03:59:00,